Time,TemperatureF,DewpointF,PressureIn,WindDirection,WindDirectionDegrees,WindSpeedMPH,WindSpeedGustMPH,Humidity,HourlyPrecipIn,Conditions,Clouds,dailyrainin,SoftwareType,DateUTC
2013-11-20 00:12:00,33.0,29.0,29.54,WSW,248,2.0,3.0,86,0.00,,,0.00,,2013-11-20 06:12:00,
2013-11-20 00:21:00,31.0,27.0,29.55,SW,215,0.0,1.0,85,0.00,,,0.00,,2013-11-20 06:21:00,
2013-11-20 00:42:00,30.0,27.0,29.55,SW,215,0.0,1.0,87,0.00,,,0.00,,2013-11-20 06:42:00,
2013-11-20 00:52:00,28.0,25.0,29.56,SW,214,0.0,0.0,88,0.00,,,0.00,,2013-11-20 06:52:00,
2013-11-20 01:11:00,27.0,25.0,29.56,SW,214,0.0,0.0,91,0.00,,,0.00,,2013-11-20 07:11:00,
2013-11-20 01:21:00,29.0,27.0,29.57,WSW,248,0.0,1.0,92,0.00,,,0.00,,2013-11-20 07:21:00,
2013-11-20 01:42:00,29.0,27.0,29.57,SW,224,0.0,1.0,91,0.00,,,0.00,,2013-11-20 07:42:00,
2013-11-20 01:52:00,27.0,25.0,29.57,SSW,208,1.0,2.0,91,0.00,,,0.00,,2013-11-20 07:52:00,
2013-11-20 02:21:00,26.0,24.0,29.58,SSW,205,0.0,1.0,91,0.00,,,0.00,,2013-11-20 08:21:00,
2013-11-20 02:42:00,27.0,25.0,29.59,WSW,248,0.0,0.0,93,0.00,,,0.00,,2013-11-20 08:42:00,
2013-11-20 02:52:00,27.0,25.0,29.60,WNW,290,0.0,2.0,92,0.00,,,0.00,,2013-11-20 08:52:00,
2013-11-20 03:12:00,26.0,23.0,29.63,NW,308,1.0,3.0,90,0.00,,,0.00,,2013-11-20 09:12:00,
2013-11-20 03:21:00,26.0,24.0,29.64,WNW,287,1.0,2.0,91,0.00,,,0.00,,2013-11-20 09:21:00,
2013-11-20 03:43:00,26.0,24.0,29.65,WNW,295,1.0,4.0,92,0.00,,,0.00,,2013-11-20 09:43:00,
2013-11-20 03:53:00,26.0,24.0,29.66,WNW,290,0.0,4.0,91,0.00,,,0.00,,2013-11-20 09:53:00,
2013-11-20 04:12:00,26.0,24.0,29.67,WNW,300,2.0,5.0,92,0.00,,,0.00,,2013-11-20 10:12:00,
2013-11-20 04:23:00,26.0,24.0,29.67,WNW,300,2.0,5.0,92,0.00,,,0.00,,2013-11-20 10:23:00,
2013-11-20 04:43:00,29.0,27.0,29.67,NW,321,2.0,7.0,92,0.00,,,0.00,,2013-11-20 10:43:00,
2013-11-20 04:53:00,29.0,26.0,29.68,North,11,1.0,5.0,90,0.00,,,0.00,,2013-11-20 10:53:00,
2013-11-20 05:12:00,28.0,25.0,29.70,NW,314,1.0,4.0,90,0.00,,,0.00,,2013-11-20 11:12:00,
2013-11-20 05:22:00,28.0,25.0,29.70,NNW,329,4.0,9.0,89,0.00,,,0.00,,2013-11-20 11:22:00,
2013-11-20 05:43:00,28.0,25.0,29.71,NNW,341,4.0,8.0,87,0.00,,,0.00,,2013-11-20 11:43:00,
2013-11-20 05:52:00,28.0,25.0,29.72,NW,307,4.0,8.0,88,0.00,,,0.00,,2013-11-20 11:52:00,
2013-11-20 06:11:00,27.0,24.0,29.73,NW,305,4.0,8.0,88,0.00,,,0.00,,2013-11-20 12:11:00,
2013-11-20 06:22:00,26.0,23.0,29.74,North,354,4.0,8.0,87,0.00,,,0.00,,2013-11-20 12:22:00,
2013-11-20 06:42:00,26.0,23.0,29.74,North,354,5.0,11.0,87,0.00,,,0.00,,2013-11-20 12:42:00,
2013-11-20 06:52:00,26.0,22.0,29.75,NNW,346,3.0,8.0,86,0.00,,,0.00,,2013-11-20 12:52:00,
2013-11-20 07:11:00,26.0,22.0,29.76,NW,319,3.0,6.0,86,0.00,,,0.00,,2013-11-20 13:11:00,
2013-11-20 07:21:00,26.0,23.0,29.78,NNW,338,2.0,7.0,87,0.00,,,0.00,,2013-11-20 13:21:00,
2013-11-20 07:42:00,26.0,23.0,29.79,North,350,2.0,7.0,87,0.00,,,0.00,,2013-11-20 13:42:00,
2013-11-20 07:52:00,27.0,24.0,29.79,North,354,7.0,11.0,87,0.00,,,0.00,,2013-11-20 13:52:00,
2013-11-20 08:12:00,27.0,23.0,29.80,NW,314,3.0,9.0,86,0.00,,,0.00,,2013-11-20 14:12:00,
2013-11-20 08:22:00,27.0,23.0,29.81,NNW,347,7.0,16.0,83,0.00,,,0.00,,2013-11-20 14:22:00,
2013-11-20 08:42:00,27.0,22.0,29.81,NW,316,7.0,13.0,82,0.00,,,0.00,,2013-11-20 14:42:00,
2013-11-20 08:52:00,27.0,22.0,29.82,NW,308,8.0,15.0,82,0.00,,,0.00,,2013-11-20 14:52:00,
2013-11-20 09:11:00,27.0,22.0,29.83,North,349,7.0,14.0,82,0.00,,,0.00,,2013-11-20 15:11:00,
2013-11-20 09:21:00,27.0,22.0,29.84,North,6,8.0,15.0,81,0.00,,,0.00,,2013-11-20 15:21:00,
2013-11-20 09:43:00,27.0,22.0,29.85,NNE,19,11.0,16.0,80,0.00,,,0.00,,2013-11-20 15:43:00,
2013-11-20 09:53:00,26.0,20.0,29.85,North,5,14.0,20.0,79,0.00,,,0.00,,2013-11-20 15:53:00,
2013-11-20 10:12:00,26.0,20.0,29.86,North,6,10.0,16.0,79,0.00,,,0.00,,2013-11-20 16:12:00,
2013-11-20 10:23:00,26.0,20.0,29.87,NNE,19,11.0,18.0,79,0.00,,,0.00,,2013-11-20 16:23:00,
2013-11-20 10:43:00,26.0,20.0,29.87,NNE,15,10.0,17.0,79,0.00,,,0.00,,2013-11-20 16:43:00,
2013-11-20 10:52:00,26.0,20.0,29.88,NNW,347,10.0,17.0,79,0.00,,,0.00,,2013-11-20 16:52:00,
2013-11-20 11:12:00,27.0,21.0,29.89,NNE,13,9.0,15.0,78,0.00,,,0.00,,2013-11-20 17:12:00,
2013-11-20 11:22:00,27.0,21.0,29.89,NNE,12,9.0,17.0,78,0.00,,,0.00,,2013-11-20 17:22:00,
2013-11-20 11:42:00,27.0,21.0,29.89,North,6,9.0,15.0,78,0.00,,,0.00,,2013-11-20 17:42:00,
2013-11-20 11:52:00,27.0,21.0,29.89,North,6,9.0,15.0,78,0.00,,,0.00,,2013-11-20 17:52:00,
2013-11-20 12:12:00,28.0,22.0,29.89,NE,42,10.0,15.0,77,0.00,,,0.00,,2013-11-20 18:12:00,
2013-11-20 12:21:00,28.0,22.0,29.89,North,354,10.0,18.0,77,0.00,,,0.00,,2013-11-20 18:21:00,
2013-11-20 12:43:00,28.0,22.0,29.89,North,1,8.0,16.0,77,0.00,,,0.00,,2013-11-20 18:43:00,
2013-11-20 12:52:00,28.0,21.0,29.90,NNE,25,8.0,15.0,76,0.00,,,0.00,,2013-11-20 18:52:00,
2013-11-20 13:21:00,27.0,20.0,29.90,North,352,9.0,16.0,75,0.00,,,0.00,,2013-11-20 19:21:00,
2013-11-20 13:42:00,26.0,19.0,29.90,NNW,342,10.0,17.0,76,0.00,,,0.00,,2013-11-20 19:42:00,
2013-11-20 13:52:00,26.0,19.0,29.90,NNE,16,12.0,19.0,76,0.00,,,0.00,,2013-11-20 19:52:00,
2013-11-20 14:11:00,26.0,19.0,29.90,North,359,12.0,16.0,76,0.00,,,0.00,,2013-11-20 20:11:00,
2013-11-20 14:21:00,26.0,19.0,29.89,NE,49,10.0,17.0,76,0.00,,,0.00,,2013-11-20 20:21:00,
2013-11-20 14:32:00,26.0,19.0,29.89,NE,49,10.0,17.0,76,0.00,,,0.00,,2013-11-20 20:32:00,
2013-11-20 14:42:00,26.0,19.0,29.89,NE,49,10.0,17.0,76,0.00,,,0.00,,2013-11-20 20:42:00,
2013-11-20 14:52:00,27.0,20.0,29.90,North,360,12.0,17.0,76,0.00,,,0.00,,2013-11-20 20:52:00,
2013-11-20 15:22:00,26.0,20.0,29.90,NE,36,8.0,15.0,78,0.00,,,0.00,,2013-11-20 21:22:00,
2013-11-20 15:43:00,26.0,20.0,29.90,North,11,12.0,18.0,78,0.00,,,0.00,,2013-11-20 21:43:00,
2013-11-20 15:53:00,25.0,19.0,29.91,North,9,13.0,18.0,78,0.00,,,0.00,,2013-11-20 21:53:00,
2013-11-20 16:13:00,25.0,19.0,29.92,North,11,12.0,16.0,78,0.00,,,0.00,,2013-11-20 22:13:00,
2013-11-20 16:23:00,24.0,19.0,29.94,NNW,345,9.0,15.0,80,0.00,,,0.00,,2013-11-20 22:23:00,
2013-11-20 16:42:00,24.0,19.0,29.93,North,356,7.0,18.0,81,0.00,,,0.00,,2013-11-20 22:42:00,
2013-11-20 16:53:00,23.0,18.0,29.95,NNW,347,11.0,16.0,82,0.00,,,0.00,,2013-11-20 22:53:00,
2013-11-20 17:12:00,23.0,19.0,29.96,NNW,347,8.0,15.0,83,0.00,,,0.00,,2013-11-20 23:12:00,
2013-11-20 17:21:00,23.0,19.0,29.96,North,349,12.0,19.0,83,0.00,,,0.00,,2013-11-20 23:21:00,
2013-11-20 17:43:00,22.0,18.0,29.98,NNW,342,9.0,18.0,84,0.00,,,0.00,,2013-11-20 23:43:00,
2013-11-20 17:52:00,22.0,18.0,29.98,NNE,17,10.0,17.0,84,0.00,,,0.00,,2013-11-20 23:52:00,
2013-11-20 18:11:00,22.0,18.0,30.00,North,9,8.0,19.0,83,0.00,,,0.00,,2013-11-21 00:11:00,
2013-11-20 18:22:00,22.0,18.0,30.01,NNW,340,11.0,19.0,83,0.00,,,0.00,,2013-11-21 00:22:00,
2013-11-20 18:42:00,21.0,17.0,30.01,North,356,12.0,21.0,83,0.00,,,0.00,,2013-11-21 00:42:00,
2013-11-20 18:52:00,21.0,17.0,30.01,North,356,12.0,21.0,83,0.00,,,0.00,,2013-11-21 00:52:00,
2013-11-20 19:11:00,19.0,15.0,30.03,NE,56,11.0,19.0,84,0.00,,,0.00,,2013-11-21 01:11:00,
2013-11-20 19:22:00,19.0,15.0,30.05,NNW,342,11.0,21.0,84,0.00,,,0.00,,2013-11-21 01:22:00,
2013-11-20 19:42:00,19.0,15.0,30.05,NNW,338,12.0,19.0,84,0.00,,,0.00,,2013-11-21 01:42:00,
2013-11-20 19:52:00,18.0,14.0,30.06,NW,321,10.0,17.0,85,0.00,,,0.00,,2013-11-21 01:52:00,
2013-11-20 20:21:00,18.0,14.0,30.08,NNE,13,10.0,22.0,85,0.00,,,0.00,,2013-11-21 02:21:00,
2013-11-20 21:11:00,17.0,13.0,30.09,NNE,26,10.0,21.0,84,0.00,,,0.00,,2013-11-21 03:11:00,
2013-11-20 21:22:00,17.0,13.0,30.10,NNE,33,10.0,19.0,84,0.00,,,0.00,,2013-11-21 03:22:00,
2013-11-20 21:43:00,16.0,13.0,30.11,NNE,27,9.0,17.0,87,0.00,,,0.00,,2013-11-21 03:43:00,
2013-11-20 21:54:00,16.0,13.0,30.11,NNW,335,9.0,13.0,88,0.00,,,0.00,,2013-11-21 03:54:00,
2013-11-20 22:13:00,16.0,13.0,30.11,NNE,20,8.0,16.0,89,0.00,,,0.00,,2013-11-21 04:13:00,
2013-11-20 22:23:00,16.0,13.0,30.12,NNW,335,10.0,17.0,88,0.00,,,0.00,,2013-11-21 04:23:00,
2013-11-20 22:53:00,16.0,13.0,30.15,NNW,333,7.0,14.0,88,0.00,,,0.00,,2013-11-21 04:53:00,
2013-11-20 23:12:00,15.0,12.0,30.16,NW,318,7.0,16.0,89,0.00,,,0.00,,2013-11-21 05:12:00,
2013-11-20 23:23:00,15.0,12.0,30.16,NW,325,8.0,18.0,89,0.00,,,0.00,,2013-11-21 05:23:00,
2013-11-20 23:42:00,14.0,11.0,30.17,NW,321,6.0,15.0,89,0.00,,,0.00,,2013-11-21 05:42:00,
2013-11-20 23:52:00,14.0,11.0,30.18,NNW,330,7.0,14.0,89,0.00,,,0.00,,2013-11-21 05:52:00,